| time (UTC) | temp F | wind direction | speed MPH | gust MPH | rain 1hr in | rain 24hr in | rain mn in | humidity % | barometer mb |
| 20260831001527 | 0 | 223 | 0.0 | 3.0 | 0.00 | 0.00 | 0.00 | 1019.1 | |
| 20260831000023 | 0 | 223 | 0.0 | 0.0 | 0.00 | 0.00 | 0.00 | 1018.8 | |
| 20260830234517 | 0 | 223 | 0.0 | 0.0 | 0.00 | 0.00 | 0.00 | 1018.7 | |
| 20260830233019 | 0 | 223 | 0.0 | 0.0 | 0.00 | 0.00 | 0.00 | 1018.8 | |
| 20260830231516 | 0 | 223 | 0.0 | 5.0 | 0.00 | 0.00 | 0.00 | 1018.7 | |
| 20260830230008 | 0 | 142 | 4.0 | 7.0 | 0.00 | 0.00 | 0.00 | 1019.0 | |
| 20260830224509 | 0 | 192 | 0.0 | 4.0 | 0.00 | 0.00 | 0.00 | 1019.2 | |
| 20260830223007 | 0 | 268 | 1.0 | 3.0 | 0.00 | 0.00 | 0.00 | 1019.0 | |
| 20260830221509 | 0 | 270 | 0.0 | 3.0 | 0.00 | 0.00 | 0.00 | 1018.9 | |
| 20260830220006 | 0 | 270 | 3.0 | 4.0 | 0.00 | 0.00 | 0.00 | 1018.9 | |
| 20260830214506 | 0 | 329 | 0.0 | 5.0 | 0.00 | 0.00 | 0.00 | 1018.8 | |
| 20260830213006 | 0 | 46 | 0.0 | 0.0 | 0.00 | 0.00 | 0.00 | 1018.7 | |
| 20260830211505 | 0 | 46 | 3.0 | 9.0 | 0.00 | 0.00 | 0.00 | 1018.5 | |
| 20260830210003 | 0 | 30 | 0.0 | 9.0 | 0.00 | 0.00 | 0.00 | 1018.3 | |
| 20260830204559 | 0 | 12 | 3.0 | 8.0 | 0.00 | 0.00 | 0.00 | 1018.1 | |
| 20260830203054 | 73 | 341 | 0.0 | 3.0 | 0.00 | 0.00 | 0.00 | 72 | 1018.0 |
| 20260830201554 | 0 | 12 | 5.0 | 10.0 | 0.00 | 0.00 | 0.00 | 1017.9 | |
| 20260830200052 | 0 | 41 | 5.0 | 13.0 | 0.00 | 0.00 | 0.00 | 1017.8 | |
| 20260830194600 | 0 | 54 | 7.0 | 16.0 | 0.00 | 0.00 | 0.00 | 1017.6 | |
| 20260830193040 | 0 | 80 | 6.0 | 15.0 | 0.00 | 0.00 | 0.00 | 1017.6 | |
| 20260830191541 | 0 | 103 | 7.0 | 14.0 | 0.00 | 0.00 | 0.00 | 1017.6 | |
| 20260830190038 | 0 | 60 | 3.0 | 13.0 | 0.00 | 0.00 | 0.00 | 1017.5 | |
| 20260830184533 | 0 | 57 | 5.0 | 13.0 | 0.00 | 0.00 | 0.00 | 1017.4 | |
| 20260830183034 | 0 | 55 | 7.0 | 13.0 | 0.00 | 0.00 | 0.00 | 1017.3 | |
| 20260830181524 | 0 | 100 | 4.0 | 18.0 | 0.00 | 0.00 | 0.00 | 1017.3 | |
| 20260830180030 | 0 | 65 | 3.0 | 16.0 | 0.00 | 0.00 | 0.00 | 1017.3 | |
| 20260830174518 | 0 | 87 | 10.0 | 17.0 | 0.00 | 0.00 | 0.00 | 1017.2 | |
| 20260830173008 | 0 | 80 | 8.0 | 19.0 | 0.00 | 0.00 | 0.00 | 1017.2 | |
| 20260830171513 | 0 | 65 | 12.0 | 20.0 | 0.00 | 0.00 | 0.00 | 1017.1 | |
| 20260830170100 | 0 | 77 | 7.0 | 17.0 | 0.00 | 0.00 | 0.00 | 1017.0 | |
| 20260830164557 | 0 | 85 | 9.0 | 15.0 | 0.00 | 0.00 | 0.00 | 1017.0 | |
| 20260830163059 | 0 | 84 | 6.0 | 16.0 | 0.00 | 0.00 | 0.00 | 1017.1 | |
| 20260830161551 | 0 | 61 | 8.0 | 13.0 | 0.00 | 0.00 | 0.00 | 1017.2 | |
| 20260830160057 | 0 | 73 | 8.0 | 15.0 | 0.00 | 0.00 | 0.00 | 1017.1 | |
| 20260830154542 | 0 | 46 | 11.0 | 17.0 | 0.00 | 0.00 | 0.00 | 1016.8 | |
| 20260830153041 | 0 | 41 | 9.0 | 17.0 | 0.00 | 0.00 | 0.00 | 1017.0 | |
| 20260830151545 | 0 | 41 | 9.0 | 15.0 | 0.00 | 0.00 | 0.00 | 1017.2 | |
| 20260830150040 | 0 | 76 | 8.0 | 16.0 | 0.00 | 0.00 | 0.00 | 1017.3 | |
| 20260830144539 | 0 | 41 | 8.0 | 18.0 | 0.00 | 0.00 | 0.00 | 1017.5 | |
| 20260830143046 | 0 | 63 | 11.0 | 16.0 | 0.00 | 0.00 | 0.00 | 1017.6 | |
| 20260830141540 | 0 | 72 | 7.0 | 22.0 | 0.00 | 0.00 | 0.00 | 1017.8 | |
| 20260830140044 | 0 | 41 | 5.0 | 19.0 | 0.00 | 0.00 | 0.00 | 1018.0 | |
| 20260830134551 | 0 | 50 | 5.0 | 19.0 | 0.00 | 0.00 | 0.00 | 1018.0 | |
| 20260830133041 | 0 | 67 | 9.0 | 19.0 | 0.00 | 0.00 | 0.00 | 1018.1 | |
| 20260830131544 | 0 | 25 | 11.0 | 18.0 | 0.00 | 0.00 | 0.00 | 1018.3 | |
| 20260830130054 | 0 | 41 | 12.0 | 17.0 | 0.00 | 0.00 | 0.00 | 1018.5 | |
| 20260830124541 | 0 | 41 | 6.0 | 18.0 | 0.00 | 0.00 | 0.00 | 1018.9 | |
| 20260830123044 | 0 | 36 | 10.0 | 17.0 | 0.00 | 0.00 | 0.00 | 1019.0 | |
| 20260830121539 | 0 | 56 | 3.0 | 16.0 | 0.00 | 0.00 | 0.00 | 1019.2 | |
| 20260830120026 | 0 | 41 | 10.0 | 17.0 | 0.00 | 0.00 | 0.00 | 1019.2 | |
| 20260830114521 | 0 | 41 | 9.0 | 16.0 | 0.00 | 0.00 | 0.00 | 1019.3 | |
| 20260830113016 | 0 | 36 | 11.0 | 21.0 | 0.00 | 0.00 | 0.00 | 1019.2 | |
| 20260830111513 | 0 | 27 | 6.0 | 13.0 | 0.00 | 0.00 | 0.00 | 1019.0 | |
| 20260830110011 | 0 | 36 | 7.0 | 12.0 | 0.00 | 0.00 | 0.00 | 1019.1 | |
| 20260830104505 | 0 | 27 | 5.0 | 10.0 | 0.00 | 0.00 | 0.00 | 1018.9 | |
| 20260830103003 | 0 | 360 | 6.0 | 11.0 | 0.00 | 0.00 | 0.00 | 1018.8 | |
| 20260830101502 | 0 | 350 | 0.0 | 13.0 | 0.00 | 0.00 | 0.00 | 1018.8 | |
| 20260830100101 | 0 | 36 | 3.0 | 10.0 | 0.00 | 0.00 | 0.00 | 1018.6 | |
| 20260830094556 | 0 | 23 | 1.0 | 11.0 | 0.00 | 0.00 | 0.00 | 1018.5 | |
| 20260830093023 | 0 | 56 | 1.0 | 8.0 | 0.00 | 0.00 | 0.00 | 1018.4 | |
| 20260830091529 | 0 | 18 | 0.0 | 0.0 | 0.00 | 0.00 | 0.00 | 1018.3 | |
| 20260830090016 | 0 | 321 | 5.0 | 14.0 | 0.00 | 0.00 | 0.00 | 1018.2 | |
| 20260830084515 | 0 | 2 | 3.0 | 10.0 | 0.00 | 0.00 | 0.00 | 1018.3 | |
| 20260830083013 | 0 | 25 | 2.0 | 10.0 | 0.00 | 0.00 | 0.00 | 1018.3 | |
| 20260830081508 | 0 | 82 | 0.0 | 5.0 | 0.00 | 0.00 | 0.00 | 1018.2 | |
| 20260830080004 | 0 | 215 | 0.0 | 0.0 | 0.00 | 0.00 | 0.00 | 1017.9 | |
| 20260830074604 | 0 | 207 | 0.0 | 7.0 | 0.00 | 0.00 | 0.00 | 1017.6 | |
| 20260830073055 | 0 | 92 | 5.0 | 13.0 | 0.00 | 0.00 | 0.00 | 1017.5 | |
| 20260830071555 | 0 | 96 | 3.0 | 10.0 | 0.00 | 0.00 | 0.00 | 1017.4 | |
| 20260830070046 | 0 | 110 | 5.0 | 12.0 | 0.00 | 0.00 | 0.00 | 1017.4 | |
| 20260830064541 | 0 | 171 | 4.0 | 13.0 | 0.00 | 0.00 | 0.00 | 1017.4 | |
| 20260830063037 | 0 | 171 | 5.0 | 12.0 | 0.00 | 0.00 | 0.00 | 1017.2 | |
| 20260830061549 | 0 | 198 | 4.0 | 11.0 | 0.00 | 0.00 | 0.00 | 1017.3 | |
| 20260830060028 | 0 | 255 | 0.0 | 8.0 | 0.00 | 0.00 | 0.00 | 1017.2 | |
| 20260830054528 | 0 | 275 | 6.0 | 10.0 | 0.00 | 0.00 | 0.00 | 1017.1 | |
| 20260830053019 | 0 | 283 | 0.0 | 5.0 | 0.00 | 0.00 | 0.00 | 1017.0 | |
| 20260830051522 | 0 | 294 | 1.0 | 5.0 | 0.00 | 0.00 | 0.00 | 1016.8 | |
| 20260830050013 | 0 | 322 | 1.0 | 3.0 | 0.00 | 0.00 | 0.00 | 1016.9 | |
| 20260830044505 | 0 | 356 | 1.0 | 10.0 | 0.00 | 0.00 | 0.00 | 1017.0 | |
| 20260830043102 | 0 | 36 | 0.0 | 11.0 | 0.00 | 0.00 | 0.00 | 1016.9 | |
| 20260830041643 | 0 | 196 | 2.0 | 6.0 | 0.00 | 0.00 | 0.00 | 1017.0 | |
| 20260830040053 | 0 | 320 | 1.0 | 6.0 | 0.00 | 0.00 | 0.00 | 1017.0 | |
| 20260830034614 | 0 | 53 | 3.0 | 5.0 | 0.00 | 0.00 | 0.00 | 1017.0 | |
| 20260830033044 | 0 | 263 | 1.0 | 6.0 | 0.00 | 0.00 | 0.00 | 1016.9 | |
| 20260830031540 | 0 | 256 | 0.0 | 4.0 | 0.00 | 0.00 | 0.00 | 1017.0 | |
| 20260830030035 | 0 | 256 | 1.0 | 5.0 | 0.00 | 0.00 | 0.00 | 1017.0 | |
| 20260830024529 | 0 | 268 | 0.0 | 5.0 | 0.00 | 0.00 | 0.00 | 1017.2 | |
| 20260830023025 | 0 | 279 | 3.0 | 5.0 | 0.00 | 0.00 | 0.00 | 1017.3 | |
| 20260830021521 | 0 | 230 | 4.0 | 6.0 | 0.00 | 0.00 | 0.00 | 1017.4 | |
| 20260830020018 | 0 | 308 | 0.0 | 0.0 | 0.00 | 0.00 | 0.00 | 1017.6 | |
| 20260830014512 | 0 | 331 | 1.0 | 8.0 | 0.00 | 0.00 | 0.00 | 1017.7 | |
| 20260830013007 | 0 | 228 | 0.0 | 6.0 | 0.00 | 0.00 | 0.00 | 1018.0 | |
| 20260830011502 | 0 | 56 | 0.0 | 3.0 | 0.00 | 0.00 | 0.00 | 1018.1 | |
| 20260830004555 | 0 | 41 | 5.0 | 11.0 | 0.00 | 0.00 | 0.00 | 1018.4 | |
| 20260830003045 | 0 | 31 | 2.0 | 8.0 | 0.00 | 0.00 | 0.00 | 1018.5 |